This demonstration page uses our WeatherBlox Daily Observations layout. Learn more.

Left ArrowRight Arrow

41.55636, -103.73856

Hourly Observations for July 14, 2018

Temp ( °F °C ) Dew Point ( °F °C ) Humidity (%) Winds ( mph kmh ) Pressure ( in mb ) Visibility ( mi km ) Precip ( " mm )
12:58 am 00:58 Clear 65 18.1 59 15 82 82 SSE 7 11 30.10 1019 10 16 N/A
1:58 am 01:58 Clear 63 17.4 59 15.2 87 87 S 6 9 30.09 1019 10 16 N/A
2:58 am 02:58 Clear 61 16.1 58 14.7 91 91 SW 5 7 30.08 1019 10 16 N/A
3:58 am 03:58 Clear 61 16 59 15 94 94 S 6 9 30.05 1018 10 16 N/A
4:58 am 04:58 Clear 60 15.7 59 14.9 95 95 S 6 9 30.04 1017 9 14 N/A
5:58 am 05:58 Sunny with Mist and Fog 60 15.3 58 14.6 96 96 S 7 11 30.06 1018 4 6 N/A
6:58 am 06:58 Partly Cloudy with Mist and Fog 62 16.7 61 16.1 96 96 S 7 11 30.06 1018 6 10 N/A
7:58 am 07:58 Cloudy with Mist and Fog 65 18.3 64 17.5 95 95 S 9 15 30.06 1018 4 6 N/A
8:58 am 08:58 Mostly Cloudy 72 22 63 17.2 74 74 SSW 15 24 30.07 1018 10 16 N/A
9:58 am 09:58 Sunny 76 24.2 64 17.8 68 68 SSW 8 13 30.06 1018 10 16 N/A
10:58 am 10:58 Sunny 81 27.3 61 16 50 50 S 10 17 30.04 1017 10 16 N/A
11:58 am 11:58 Sunny 85 29.4 49 9.4 29 29 S 5 7 30.02 1017 10 16 N/A
12:58 pm 12:58 Sunny 86 30.2 47 8.6 26 26 SSE 15 24 30.01 1016 10 16 N/A
1:58 pm 13:58 Sunny 89 31.5 46 8 23 23 S 12 19 29.98 1015 10 16 N/A
2:58 pm 14:58 Sunny 89 31.7 47 8.6 24 24 SE 12 19 29.97 1015 10 16 N/A
3:58 pm 15:58 Sunny 91 33 48 9 23 23 SE 14 22 29.96 1014 10 16 N/A
4:58 pm 16:58 Sunny 90 32 48 9 24 24 SE 14 22 29.95 1014 10 16 N/A
5:58 pm 17:58 Sunny 89 31.4 49 9.4 26 26 SSE 13 20 29.95 1014 10 16 N/A
6:58 pm 18:58 Sunny 86 29.8 49 9.5 28 28 SSE 17 28 29.94 1014 10 16 N/A
7:58 pm 19:58 Sunny 81 27.1 49 9.7 34 34 SE 12 19 29.95 1014 10 16 N/A
8:58 pm 20:58 Clear 75 23.8 50 9.8 41 41 SE 12 19 29.97 1015 10 16 N/A
9:58 pm 21:58 Clear 71 21.9 51 10.7 49 49 SSE 8 13 30.01 1016 10 16 N/A
10:58 pm 22:58 Partly Cloudy 70 21.2 52 10.9 52 52 SSE 8 13 30.01 1016 10 16 N/A
11:58 pm 23:58 Partly Cloudy 69 20.7 53 11.8 57 57 S 6 9 30.01 1016 10 16 N/A

Powered by AerisWeather